x

Halibut Bank (46146) Wave Buoy

3:00am - Fri 24th Feb 2017 All times are PST. -8 hours from GMT.

  • Sig Wave height 0.7ft
  • Peak Period 2s
  • Wind
    11mph, 13mph gusts
  • Sea Temp 44°f
  • Air Temp 38°f
  • Sea Pressure 1019.8mb
  • Halibut Bank
  • Halibut Bank

More Historic Weather Station data

Upgrade to MSW Pro to gain access to the past 30 days of data for over 8000 Wavebouys and Weather Stations around the globe.

Join Pro

Comparision Forecast

View Surf forecast
   
Fri 02/24 3:00am 0.7ft 2s 11 13 mph 1019.8mb 44f 38f
2:00am 0.7ft 2s 9 11 mph 1020.1mb 44f 38f
1:00am 0.3ft 2s 13
mph
1020.3mb 44f 36f
12:00am 0.3ft 2s 7 9 mph 1020.7mb 44f 39f
Thu 02/23 11:00pm 0.3ft 2s 4 7 mph 1021.2mb 44f 40f
10:00pm 0.3ft 2s 2 7 mph 1021.6mb 44f 41f
9:00pm 0.3ft 6s 4
mph
1021.6mb 44f 41f
8:00pm 0.3ft 3s 4 7 mph 1021.7mb 44f 42f
7:00pm 0.3ft 4s 4 7 mph 1021.9mb 44f 42f
6:00pm 0.3ft 3s 7 9 mph 1022.1mb 44f 42f
5:00pm 0.7ft 4s 7 9 mph 1022.5mb 44f 41f
4:00pm 0.7ft 2s 7
mph
1022.8mb 44f 42f
3:00pm 0.7ft 3s 7 9 mph 1023mb 44f 42f
2:00pm 1ft 3s 9 11 mph 1023.4mb 44f 41f
1:00pm 1ft 3s 11 13 mph 1024.3mb 44f 40f
12:00pm 0.7ft 2s 11 13 mph 1025mb 44f 39f
11:00am 0.7ft 3s 9 11 mph 1025.3mb 44f 39f
10:00am 0.7ft 3s 4 9 mph 1025.5mb 43f 38f
9:00am 0.7ft 3s 7 9 mph 1025.1mb 43f 38f
8:00am 0.7ft 4s 9 11 mph 1025mb 43f 37f
7:00am 1ft 2s 9 11 mph 1024.5mb 43f 37f
6:00am 0.7ft 3s 11
mph
1024.1mb 43f 37f
5:00am 0.7ft 3s 7 9 mph 1024mb 43f 38f
4:00am 1ft 4s 9 11 mph 1024mb 43f 38f
3:00am 1ft 3s 9 11 mph 1023.9mb 43f 38f
2:00am 1ft 3s 9 11 mph 1023.9mb 44f 39f
Wed 02/22 2:00am 0.3ft 2s 9 11 mph 1020.6mb 44f 41f
1:00am 0.7ft 3s 9
mph
1020.2mb 44f 41f
12:00am 1ft 3s 7 9 mph 1019.7mb 44f 42f
Tue 02/21 11:00pm 1.3ft 3s 9 13 mph 1019.6mb 44f 42f
10:00pm 1ft 3s 11 13 mph 1019.2mb 44f 43f
9:00pm 1ft 3s 13 16 mph 1018.5mb 44f 44f
8:00pm 1.3ft 3s 11 13 mph 1017.7mb 45f 44f
7:00pm 1.3ft 3s 11 13 mph 1017.2mb 45f 44f
6:00pm 1.3ft 3s 11 13 mph 1016.4mb 45f 44f
5:00pm 1.6ft 3s 13
mph
1015.6mb 45f 44f
4:00pm 1.6ft 4s 13 16 mph 1015mb 45f 44f
3:00pm 2ft 4s 13 18 mph 1014.4mb 45f 43f
2:00pm 2ft 4s 13 16 mph 1013.9mb 45f 42f
1:00pm 2.5ft 4s 16 18 mph 1013.5mb 45f 42f
12:00pm  -   -  18
mph
1013.2mb - 41f
11:00am 2ft 4s 18 22 mph 1012.7mb 44f 41f
10:00am 1.6ft 4s 16 18 mph 1011.9mb 44f 41f
9:00am 2ft 4s 16 20 mph 1010.9mb 44f 41f
8:00am 1.6ft 3s 16 22 mph 1010mb 44f 41f
7:00am 1.6ft 3s 18 20 mph 1009mb 44f 41f
6:00am 1.3ft 3s 18
mph
1008.2mb 44f 42f
5:00am 1ft 2s 16 18 mph 1008.1mb 44f 42f
4:00am 0.7ft 2s 13 16 mph 1008.4mb 44f 42f
3:00am 0.3ft 2s 4 7 mph 1008.3mb 44f 41f
2:00am 0.3ft 6s 4 7 mph 1008.1mb 44f 41f
1:00am 0.3ft 3s 2 4 mph 1007.9mb 44f 43f
12:00am 0.3ft 3s 4 7 mph 1008mb 44f 43f
Mon 02/20 11:00pm 0.7ft 3s 2 4 mph 1007.5mb 44f 43f
10:00pm 0.7ft 3s 4 7 mph 1006.9mb 44f 44f
9:00pm 1ft 3s 7
mph
1006.9mb 44f 44f
8:00pm 1.3ft 3s 9 11 mph 1006.5mb 44f 44f
7:00pm 1.3ft 4s 9 11 mph 1005.9mb 44f 44f
6:00pm 1.6ft 4s 11 13 mph 1005.4mb 44f 44f
5:00pm 2ft 4s 16 18 mph 1004.9mb 45f 44f
4:00pm 2ft 4s 18 22 mph 1004.1mb 46f 44f
3:00pm 2ft 4s 18 22 mph 1003.2mb 46f 44f
2:00pm 2ft 4s 20 22 mph 1002.6mb 45f 44f
1:00pm 1.3ft 3s 20 22 mph 1001.9mb 45f 44f